Regional Weather Roundup
Issued by NWS

Home | Current Version | Previous Version | Graphics & Text | Print | Product List | Glossary On
Versions: 1 2 3 4 5 6 7 8 9 10 11 12 13 14 15 16 17 18 19 20 21 22 23 24 25 26 27 28 29 30 31 32 33 34 35 36 37 38 39 40 41 42 43 44 45 46 47 48 49 50
854
ASUS43 KLSX 181307
RWRMO

WEATHER SUMMARY FOR MISSOURI
NATIONAL WEATHER SERVICE SPRINGFIELD MO
800 AM CDT FRI AUG 18 2017

NOTE: "FAIR" INDICATES FEW OR NO CLOUDS BELOW 12,000 FEET WITH NO
       SIGNIFICANT WEATHER AND/OR OBSTRUCTIONS TO VISIBILITY.
       CURRENT SKY AND/OR WEATHER CONDITIONS ARE NOT AVAILABLE FOR
       CHILLICOTHE AND FARMINGTON.

MOZ001>031-035>038-043-044-053-054-181400-
...NORTHERN AND WESTERN MISSOURI...

CITY           SKY/WX    TMP DP  RH WIND       PRES   REMARKS
KANSAS CTY INT CLOUDY    67  63  87 SW5       29.97R
KANSAS C DTWN  CLOUDY    72  64  76 CALM      29.96R
LEE`S SUMMIT   MOSUNNY   69  63  81 CALM      29.99R
ST JOSEPH      MOSUNNY   65  65 100 S5        29.95S FOG
CHILLICOTHE      N/A     64  63  96 SE3       29.97S
KIRKSVILLE     SUNNY     66  61  84 W5        29.98R

$$
MOZ066>068-077>081-088>096-101>105-181400-
...SOUTHWEST MISSOURI...

CITY           SKY/WX    TMP DP  RH WIND       PRES   REMARKS
SPRINGFIELD    SUNNY     66  63  90 S3        30.03R
JOPLIN         PTSUNNY   72  70  93 S6        30.01S
BRANSON        MOSUNNY   72  68  88 CALM      30.05R

$$
MOZ032>034-039>042-045>050-055>058-069>072-181400-
...CENTRAL MISSOURI...

CITY           SKY/WX    TMP DP  RH WIND       PRES   REMARKS
COLUMBIA       SUNNY     67  63  87 W7        29.99R
JEFFERSON CITY MOSUNNY   67  66  97 CALM      29.99R
ROLLA          SUNNY     66  64  93 VRB7      30.01R
SEDALIA        SUNNY     68  65  90 SW6       30.00S
WHITEMAN AFB   PTSUNNY   66  66 100 SW3       29.97S
WARRENSBURG    MOSUNNY   63  61  94 CALM      29.97F
OSAGE BEACH    SUNNY     66  63  90 SW3       30.02R

$$
MOZ051-052-059>065-181400-
...EAST CENTRAL MISSOURI...

CITY           SKY/WX    TMP DP  RH WIND       PRES   REMARKS
ST LOUIS INTL  MOSUNNY   71  65  81 VRB6      29.96R
SPIRIT OF STL  SUNNY     69  66  90 W5        29.96R
ST CHARLES     MOSUNNY   68  64  87 W6        29.95R

$$
MOZ072>076-082>087-097>100-106>115-181400-
...SOUTH CENTRAL AND SOUTHEAST MISSOURI...

CITY           SKY/WX    TMP DP  RH WIND       PRES   REMARKS
CAPE GIRARDEAU MOSUNNY   69  66  90 W7        29.97R
FARMINGTON     SUNNY     68  63  84 CALM      30.00R
POPLAR BLUFF   MOSUNNY   69  67  93 W5        30.00R
WEST PLAINS    SUNNY     67  64  90 SW3       30.05R

$$



USA.gov is the U.S. government's official web portal to all federal, state and local government web resources and services.